Flag for Canada Weather past 2 weeks in Kings County, Nova Scotia, Canada

Now
36 °F

Chilly.


Feels Like: 32 °F
Forecast: 34 / 42 °F
Wind: 5 mph from Northwest

Location: McNabs Island - AUT

Current Time: Apr 27, 2015 at 6:39:22 AM

Latest Report: Apr 27, 2015 at 6:00 AM


Visibility: N/A

Pressure: 29.40 "Hg

Humidity: 88%

Dew point: 33 °F

Location of Kings CountyLocation

Historic Weather in Kings County — Graph

°F

Kings County temperature yesterday

Maximum temperature yesterday: 49 °F (at 5:00 PM)
Minimum temperature yesterday: 31 °F (at 6:00 AM)
Average temperature yesterday: 41 °F

Past Weeks' High & Low Weather Summary

 TemperatureHumidityPressure
High57 °F (Apr 15, 1:00 PM)100% (Apr 23, 8:00 AM)30.39 "Hg (Apr 23, 8:00 AM)
Low28 °F (Apr 16, 6:00 AM)31% (Apr 16, 6:00 PM)29.42 "Hg (Apr 27, 5:00 AM)
Average39 °F80%29.94 "Hg
* Reported Apr 12 5:00 AM — Apr 27 5:00 AM, Kings County, Weather by CustomWeather, © 2015

Note: Actual official high and low records may vary slightly from our data, if they occured in-between our weather recording intervals... More about our weather records

Advertising

Kings County weather history for previous 24 hours

 ConditionsComfort  
Time TempWeatherWind HumidityBarometerVisibility
5:00 AM
Mon, Apr 27
36 °FChilly.3 mph84%29.42 "HgN/A
4:00 AM36 °FChilly.6 mph85%29.44 "HgN/A
3:00 AM36 °FChilly.7 mph90%29.46 "HgN/A
2:00 AM37 °FChilly.7 mph89%29.47 "HgN/A
1:00 AM38 °FChilly.6 mph86%29.49 "HgN/A
12:00 AM39 °FChilly.7 mph82%29.50 "HgN/A
11:00 PM
Sun, Apr 26
40 °FChilly.5 mph80%29.51 "HgN/A
10:00 PM41 °FQuite cool.6 mph76%29.53 "HgN/A
9:00 PM41 °FQuite cool.5 mph73%29.54 "HgN/A
8:00 PM44 °FQuite cool.6 mph63%29.53 "HgN/A
7:00 PM46 °FCool.7 mph57%29.52 "HgN/A
6:00 PM48 °FCool.7 mph50%29.52 "HgN/A
5:00 PM49 °FCool.6 mph53%29.52 "HgN/A
4:00 PM48 °FCool.8 mph58%29.54 "HgN/A
3:00 PM45 °FQuite cool.6 mph75%29.55 "HgN/A
2:00 PM47 °FCool.7 mph56%29.56 "HgN/A
1:00 PM49 °FCool.6 mph51%29.57 "HgN/A
12:00 PM46 °FCool.6 mph58%29.57 "HgN/A
11:00 AM45 °FQuite cool.6 mph65%29.58 "HgN/A
10:00 AM42 °FQuite cool.7 mph76%29.58 "HgN/A
9:00 AM41 °FQuite cool.3 mph74%29.59 "HgN/A
8:00 AM36 °FChilly.5 mph82%29.61 "HgN/A
7:00 AM35 °FChilly.6 mph88%29.60 "HgN/A
6:00 AM31 °FChilly.6 mph94%29.59 "HgN/A
Weather by CustomWeather, © 2015

See weather overviewHow to use our weather pages